Location: La Fredeussais
(48.1780°N, 1.3980°W)
Time: 09:00:08
(UTC+00:00)

Cosmos 2184 Rocket - Pass Details

Date: 09 May 2021
Orbit: 958 x 1003 km, 82.9° (Epoch: 12 June)

Event Time Altitude Azimuth Distance (km) Brightness Sun altitude
Rises 21:56:12 0° 350° (N) 3,691 8.3 -18.5°
Reaches altitude 10° 21:58:44 10° 349° (N) 2,732 7.4 -18.7°
Maximum altitude 22:04:59 82° 264° (W) 981 4.0 -19.2°
Enters shadow 22:08:18 29° 179° (S) 1,671 4.7 -19.5°
